Weather in Afyonkarahisar

Turkey     38°45′15″N   30°33′52″E
temp.,
°C
wind,
m/s
gust,
m/s
humid.,
%
clouds,
%
prec.,
mm/h
press.,
hPa
HPBL,
m
19 september, sun
sun1900:00+18sw34501 0.0 101465
03:00+16wsw33570 0.0 101527
06:00+16sw225950 0.0 101621
09:00+20sw24480 0.0 1016344
12:00+24w68346 0.0 10152612
15:00+26w892626 0.0 10133049
18:00+23wnw69346 0.0 1014842
21:00+21sw23402 0.0 101542
20 september, mon
mon2000:00+18sw22485 0.0 101618
03:00+17ssw32570 0.0 101626
06:00+16ssw22580 0.0 101621
09:00+20ssw23440 0.0 1016263
12:00+26wsw68280 0.0 10142469
15:00+28w68200 0.0 10123174
18:00+26wsw47232 0.0 1011364
21:00+21wsw22300 0.0 101312
21 september, tue
tue2100:00+20sw33350 0.0 101425
03:00+18sw224315 0.0 101420
06:00+17sw22483 0.0 101417
09:00+20sw1239100 0.0 1015221
12:00+25w3523100 0.0 10132052
15:00+27w46204 0.0 10112973
18:00+25w682220 0.0 1011856
21:00+18nnw36707 0.0 1014251
22 september, wed
wed2200:00+15nw368531 0.3 1016550
03:00+14n367944 0.5 1016658
06:00+13n477283 0.1 1016682
09:00+14nnw346929 0.1 1016780
12:00+18n434844 0.0 10131503
15:00+19n644277 0.0 10111647
18:00+16nnw54505 0.0 10111085
21:00+12n34610 0.0 1012353
23 september, thu
thu2300:00+10nw23714 0.0 1012238
03:00+8nw2481100 0.0 1012226
06:00+7nw3477100 0.0 1012325
09:00+8nnw347066 0.0 1012702
12:00+12n5549100 0.1 10121635
15:00+12n6646100 0.1 10111769
18:00+10n775358 0.0 10131248
21:00+7n47666 0.0 1017519